| time (UTC) | temp F | wind direction | speed knots | gust knots | rain 1hr in | rain 24hr in | rain mn in | humidity % | barometer mb |
| 20260504180016 | 65 | 197 | 0.9 | 2.6 | 0.00 | 0.06 | 0.06 | 73 | 1006.1 |
| 20260504175016 | 65 | 197 | 0.9 | 2.6 | 0.00 | 0.06 | 0.06 | 75 | 1006.2 |
| 20260504174016 | 64 | 184 | 0.9 | 6.1 | 0.00 | 0.06 | 0.06 | 76 | 1006.2 |
| 20260504173016 | 63 | 165 | 0.9 | 2.6 | 0.00 | 0.06 | 0.06 | 78 | 1006.5 |
| 20260504172016 | 62 | 195 | 1.7 | 2.6 | 0.00 | 0.06 | 0.06 | 78 | 1006.8 |
| 20260504171016 | 62 | 192 | 0.9 | 2.6 | 0.00 | 0.06 | 0.06 | 80 | 1006.8 |
| 20260504151016 | 63 | 164 | 0.9 | 2.6 | 0.00 | 0.00 | 0.00 | 65 | 1008.3 |
| 20260504141036 | 65 | 160 | 0.9 | 4.3 | 0.00 | 0.00 | 0.00 | 61 | 1008.2 |
| 20260504081018 | 59 | 0.0 | 0.0 | 0.00 | 0.00 | 0.00 | 69 | 1009.1 | |
| 20260504050017 | 65 | 185 | 0.9 | 4.3 | 0.00 | 0.00 | 0.00 | 58 | 1009.1 |
| 20260504045017 | 65 | 187 | 1.7 | 4.3 | 0.00 | 0.00 | 0.00 | 58 | 1009.2 |
| 20260504044017 | 65 | 170 | 0.9 | 3.5 | 0.00 | 0.00 | 0.00 | 58 | 1009.3 |
| 20260504043017 | 65 | 178 | 1.7 | 2.6 | 0.00 | 0.00 | 0.00 | 58 | 1009.5 |
| 20260504042017 | 66 | 169 | 0.9 | 3.5 | 0.00 | 0.00 | 0.00 | 57 | 1009.8 |
| 20260504041038 | 66 | 163 | 0.9 | 1.7 | 0.00 | 0.00 | 0.00 | 55 | 1010.0 |
| 20260504040017 | 67 | 133 | 0.0 | 1.7 | 0.00 | 0.00 | 0.00 | 54 | 1010.1 |
| 20260504035017 | 68 | 231 | 0.0 | 2.6 | 0.00 | 0.00 | 0.00 | 53 | 1010.1 |
| 20260504034017 | 68 | 173 | 0.9 | 3.5 | 0.00 | 0.00 | 0.00 | 52 | 1010.0 |
| 20260504033017 | 68 | 181 | 2.6 | 4.3 | 0.00 | 0.00 | 0.00 | 55 | 1009.9 |
| 20260504032017 | 68 | 157 | 2.6 | 5.2 | 0.00 | 0.00 | 0.00 | 55 | 1010.2 |
| 20260504031017 | 67 | 177 | 1.7 | 3.5 | 0.00 | 0.00 | 0.00 | 56 | 1010.6 |
| 20260504030017 | 67 | 183 | 0.9 | 2.6 | 0.00 | 0.00 | 0.00 | 55 | 1010.6 |
| 20260504025017 | 68 | 187 | 1.7 | 2.6 | 0.00 | 0.00 | 0.00 | 54 | 1010.3 |
| 20260504024042 | 68 | 170 | 0.9 | 1.7 | 0.00 | 0.00 | 0.00 | 53 | 1010.2 |
| 20260504023017 | 68 | 171 | 0.9 | 1.7 | 0.00 | 0.00 | 0.00 | 52 | 1010.2 |
| 20260504022057 | 67 | 174 | 0.9 | 1.7 | 0.00 | 0.00 | 0.00 | 53 | 1010.2 |
| 20260504021017 | 67 | 0.0 | 0.0 | 0.00 | 0.00 | 0.00 | 55 | 1010.2 | |
| 20260504020017 | 68 | 0.0 | 0.0 | 0.00 | 0.00 | 0.00 | 54 | 1010.1 | |
| 20260504015017 | 69 | 0.0 | 0.0 | 0.00 | 0.00 | 0.00 | 52 | 1010.2 | |
| 20260504014017 | 70 | 0.0 | 0.0 | 0.00 | 0.00 | 0.00 | 48 | 1010.1 | |
| 20260504013017 | 70 | 0.0 | 0.0 | 0.00 | 0.00 | 0.00 | 48 | 1009.9 | |
| 20260504012057 | 71 | 0.0 | 0.0 | 0.00 | 0.00 | 0.00 | 47 | 1009.7 | |
| 20260504011037 | 71 | 0.0 | 0.0 | 0.00 | 0.00 | 0.00 | 46 | 1009.7 | |
| 20260504010017 | 72 | 0.0 | 0.0 | 0.00 | 0.00 | 0.00 | 45 | 1009.6 | |
| 20260504005037 | 73 | 0.0 | 0.0 | 0.00 | 0.00 | 0.00 | 44 | 1009.6 | |
| 20260504004017 | 74 | 0.0 | 0.9 | 0.00 | 0.00 | 0.00 | 42 | 1009.6 | |
| 20260504003017 | 74 | 182 | 0.0 | 1.7 | 0.00 | 0.00 | 0.00 | 41 | 1009.6 |
| 20260504002017 | 75 | 168 | 0.0 | 1.7 | 0.00 | 0.00 | 0.00 | 40 | 1009.6 |
| 20260504001017 | 75 | 174 | 0.9 | 2.6 | 0.00 | 0.00 | 0.00 | 39 | 1009.6 |
| 20260504000017 | 75 | 182 | 1.7 | 6.1 | 0.00 | 0.00 | 0.00 | 39 | 1009.6 |
| 20260503235037 | 76 | 180 | 1.7 | 7.0 | 0.00 | 0.00 | 0.00 | 39 | 1009.7 |
| 20260503234017 | 76 | 185 | 1.7 | 6.1 | 0.00 | 0.00 | 0.00 | 38 | 1009.7 |
| 20260503233017 | 77 | 187 | 1.7 | 7.0 | 0.00 | 0.00 | 0.00 | 37 | 1009.8 |
| 20260503232017 | 77 | 165 | 0.9 | 7.0 | 0.00 | 0.00 | 0.00 | 37 | 1009.8 |
| 20260503231017 | 77 | 202 | 2.6 | 9.6 | 0.00 | 0.00 | 0.00 | 36 | 1009.9 |
| 20260503230017 | 77 | 182 | 1.7 | 5.2 | 0.00 | 0.00 | 0.00 | 36 | 1010.0 |
| 20260503225017 | 78 | 210 | 2.6 | 8.7 | 0.00 | 0.00 | 0.00 | 35 | 1010.0 |
| 20260503224037 | 78 | 188 | 2.6 | 7.8 | 0.00 | 0.00 | 0.00 | 34 | 1010.0 |
| 20260503223037 | 79 | 175 | 2.6 | 7.0 | 0.00 | 0.00 | 0.00 | 34 | 1010.1 |
| 20260503222017 | 79 | 154 | 1.7 | 7.0 | 0.00 | 0.00 | 0.00 | 34 | 1010.2 |
| 20260503221017 | 79 | 183 | 2.6 | 7.8 | 0.00 | 0.00 | 0.00 | 32 | 1010.3 |
| 20260503220037 | 79 | 163 | 1.7 | 7.8 | 0.00 | 0.00 | 0.00 | 32 | 1010.4 |
| 20260503215037 | 78 | 168 | 0.9 | 8.7 | 0.00 | 0.00 | 0.00 | 33 | 1010.6 |
| 20260503214017 | 78 | 171 | 3.5 | 7.8 | 0.00 | 0.00 | 0.00 | 32 | 1010.7 |
| 20260503213037 | 78 | 190 | 3.5 | 13.9 | 0.00 | 0.00 | 0.00 | 32 | 1010.6 |
| 20260503212037 | 79 | 182 | 1.7 | 7.0 | 0.00 | 0.00 | 0.00 | 32 | 1010.7 |
| 20260503211017 | 78 | 175 | 2.6 | 7.0 | 0.00 | 0.00 | 0.00 | 32 | 1010.9 |
| 20260503210037 | 78 | 164 | 2.6 | 8.7 | 0.00 | 0.00 | 0.00 | 33 | 1011.0 |
| 20260503205017 | 78 | 203 | 4.3 | 7.8 | 0.00 | 0.00 | 0.00 | 32 | 1011.1 |
| 20260503204017 | 78 | 209 | 3.5 | 11.3 | 0.00 | 0.00 | 0.00 | 32 | 1011.2 |
| 20260503203017 | 77 | 178 | 4.3 | 12.2 | 0.00 | 0.00 | 0.00 | 32 | 1011.3 |
| 20260503202017 | 77 | 175 | 4.3 | 10.4 | 0.00 | 0.00 | 0.00 | 32 | 1011.5 |
| 20260503201017 | 76 | 185 | 5.2 | 13.9 | 0.00 | 0.00 | 0.00 | 32 | 1011.7 |
| 20260503200117 | 77 | 188 | 4.3 | 15.6 | 0.00 | 0.00 | 0.00 | 32 | 1012.0 |
| 20260503195035 | 76 | 178 | 2.6 | 10.4 | 0.00 | 0.00 | 0.00 | 33 | 1012.2 |
| 20260503194017 | 76 | 185 | 3.5 | 14.8 | 0.00 | 0.00 | 0.00 | 34 | 1012.5 |
| 20260503193017 | 75 | 191 | 3.5 | 8.7 | 0.00 | 0.00 | 0.00 | 34 | 1012.8 |
| 20260503192057 | 74 | 187 | 4.3 | 11.3 | 0.00 | 0.00 | 0.00 | 34 | 1013.1 |
| 20260503191017 | 74 | 182 | 3.5 | 12.2 | 0.00 | 0.00 | 0.00 | 34 | 1013.3 |
| 20260503190017 | 74 | 172 | 3.5 | 8.7 | 0.00 | 0.00 | 0.00 | 35 | 1013.5 |
| 20260503185017 | 73 | 188 | 4.3 | 9.6 | 0.00 | 0.00 | 0.00 | 35 | 1013.7 |
| 20260503184037 | 73 | 185 | 4.3 | 8.7 | 0.00 | 0.00 | 0.00 | 35 | 1013.9 |
| 20260503183015 | 72 | 197 | 4.3 | 13.0 | 0.00 | 0.00 | 0.00 | 35 | 1014.0 |
| 20260503182037 | 73 | 174 | 4.3 | 11.3 | 0.00 | 0.00 | 0.00 | 34 | 1014.3 |
| 20260503181017 | 72 | 181 | 2.6 | 8.7 | 0.00 | 0.00 | 0.00 | 35 | 1014.4 |